"Time","Temp","Dewpoint","Humidity","Pressure","Direction","Speed","Gust","Precip","PrecipRate"
"00:04:56","46.4","44.5","93","30.02","137","0","0","0.00","0.00"
"00:09:56","46.2","44.3","93","30.02","137","0","0","0.00","0.00"
"00:14:59","46","44.1","93","30.03","137","0","0","0.00","0.00"
"00:19:56","45.8","43.9","93","30.03","137","0","0","0.00","0.00"
"00:24:57","45.7","43.8","93","30.03","137","0","0","0.00","0.00"
"00:29:58","45.6","43.7","93","30.03","137","0","0","0.00","0.00"
"00:34:56","45.4","43.5","93","30.03","137","0","0","0.00","0.00"
"00:39:59","45.3","43.4","93","30.03","137","0","0","0.00","0.00"
"00:44:56","45.2","43.4","93.1","30.04","137","0","0","0.00","0.00"
"00:49:57","45.2","43.6","94","30.04","137","0","0","0.00","0.00"
"00:54:58","45.2","43.5","93.8","30.04","137","0","0","0.00","0.00"
"00:59:56","45.2","43.6","94","30.04","137","0","0","0.00","0.00"
"01:04:57","45.2","43.6","94","30.04","137","0","0","0.00","0.00"
"01:09:59","45.1","43.5","94","30.04","137","0","0","0.00","0.00"
"01:14:58","45","43.4","94","30.04","137","0","0","0.00","0.00"
"01:19:59","44.8","43.1","93.7","30.03","137","0","0","0.00","0.00"
"01:24:56","44.7","43.1","94","30.03","137","0","0","0.00","0.00"
"01:29:57","44.5","42.8","93.7","30.03","137","0","0","0.00","0.00"
"01:34:59","44.4","42.6","93.6","30.03","137","0","0","0.00","0.00"
"01:39:57","44.3","42.7","94","30.03","137","0","0","0.00","0.00"
"01:44:59","44.2","42.6","94","30.04","137","0","0","0.00","0.00"
"01:49:56","44.2","42.6","94","30.04","137","0","0","0.00","0.00"
"01:54:57","44.2","42.6","94","30.04","137","0","0","0.00","0.00"
"01:59:58","44.2","42.6","94","30.04","137","0","0","0.00","0.00"
"02:04:59","44.2","42.6","94","30.03","137","0","0","0.00","0.00"
"02:09:58","44","42.4","94","30.03","137","0","0","0.00","0.00"
"02:14:56","43.9","42.3","94","30.03","137","0","0","0.00","0.00"
"02:19:58","43.8","42.2","94","30.03","137","0","0","0.00","0.00"
"02:24:59","43.7","42.1","94","30.03","137","0","0","0.00","0.00"
"02:29:56","43.5","41.9","94","30.03","137","0","0","0.00","0.00"
"02:34:57","43.4","41.8","94","30.03","137","0","0","0.00","0.00"
"02:39:56","43.3","41.7","94","30.03","137","0","0","0.00","0.00"
"02:44:57","43.3","42","94.9","30.03","137","0","0","0.00","0.00"
"02:49:58","43.2","41.9","95","30.03","137","0","0","0.00","0.00"
"02:54:56","43.2","41.9","95","30.03","137","0","0","0.00","0.00"
"02:59:57","43.2","41.9","95","30.03","137","0","0","0.00","0.00"
"03:04:59","43.1","41.8","95","30.03","137","0","0","0.00","0.00"
"03:09:57","43.1","41.8","95","30.03","137","0","0","0.00","0.00"
"03:14:56","43.1","41.8","95","30.03","137","0","0","0.00","0.00"
"03:19:57","43","41.7","95","30.03","137","0","0","0.00","0.00"
"03:24:59","42.8","41.5","95","30.03","137","0","0","0.00","0.00"
"03:29:56","42.6","41.3","95","30.03","137","0","0","0.00","0.00"
"03:34:57","42.4","41.1","95","30.03","137","0","0","0.00","0.00"
"03:39:56","42.3","41","95","30.03","137","0","0","0.00","0.00"
"03:44:57","42.3","41","95","30.03","137","0","1.2","0.00","0.00"
"03:49:58","42.3","41","95","30.03","137","0","1.2","0.00","0.00"
"03:54:59","42.3","41","95","30.03","137","0","0","0.00","0.00"
"03:59:56","42.2","40.9","95","30.03","137","0","0","0.00","0.00"
"04:04:57","42.1","40.8","95","30.03","137","0","0","0.00","0.00"
"04:09:59","42","40.7","95","30.03","137","0","1.2","0.00","0.00"
"04:14:58","42","40.7","95","30.03","137","0","0","0.00","0.00"
"04:19:56","42","40.7","95","30.02","137","0","0","0.00","0.00"
"04:24:57","41.9","40.6","95","30.02","137","0","0","0.00","0.00"
"04:29:58","41.9","40.6","95","30.02","137","0","0","0.00","0.00"
"04:34:59","41.8","40.5","95","30.02","137","0","0","0.00","0.00"
"04:39:58","41.6","40.3","95","30.02","137","0","0","0.00","0.00"
"04:44:59","41.4","40.1","95","30.02","137","0","0","0.00","0.00"
"04:49:57","41.3","40","95","30.02","137","0","0","0.00","0.00"
"04:54:58","41.2","39.9","95","30.02","137","0","0","0.00","0.00"
"04:59:59","41.2","39.9","95","30.03","137","0","0","0.00","0.00"
"05:04:56","41.2","39.9","95","30.03","137","0","0","0.00","0.00"
"05:09:58","41.1","39.8","95","30.03","137","0","0","0.00","0.00"
"05:14:57","41.2","40.1","96","30.04","137","0","0","0.00","0.00"
"05:19:58","41.2","40.1","95.9","30.04","137","0.1","1.2","0.00","0.00"
"05:24:56","41.1","39.8","95","30.04","137","0.1","1.2","0.00","0.00"
"05:29:57","41","39.7","95","30.04","137","0","0","0.00","0.00"
"05:34:58","40.8","39.5","95","30.03","137","0","0","0.00","0.00"
"05:39:56","40.6","39.3","95","30.03","137","0","0","0.00","0.00"
"05:44:58","40.5","39.2","95","30.03","137","0","0","0.00","0.00"
"05:49:59","40.4","39.1","95","30.03","137","0","0","0.00","0.00"
"05:54:56","40.4","39.1","95","30.03","137","0","0","0.00","0.00"
"05:59:57","40.4","39.1","95.3","30.03","137","0","0","0.00","0.00"
"06:04:58","40.3","39.1","95.3","30.03","137","0","0","0.00","0.00"
"06:09:58","40.3","39","95.2","30.03","137","0","0","0.00","0.00"
"06:14:56","40.3","39.3","96","30.03","137","0","1.2","0.00","0.00"
"06:19:58","40.3","39.3","96","30.03","137","0","0","0.00","0.00"
"06:24:59","40.2","39","95.5","30.03","137","0","0","0.00","0.00"
"06:29:56","40","38.7","95","30.03","137","0","0","0.00","0.00"
"06:34:57","39.8","38.5","95","30.03","137","0","0","0.00","0.00"
"06:39:59","39.7","38.4","95","30.03","137","0","0","0.00","0.00"
"06:44:56","39.6","38.3","95.1","30.03","137","0","0","0.00","0.00"
"06:49:58","39.6","38.6","96","30.03","137","0","0","0.00","0.00"
"06:54:59","39.7","38.7","96","30.03","137","0","0","0.00","0.00"
"06:59:57","39.7","38.7","96","30.03","137","0","0","0.00","0.00"
"07:04:59","39.6","38.6","96","30.03","137","0","0","0.00","0.00"
"07:09:57","39.5","38.5","96","30.03","137","0","0","0.00","0.00"
"07:14:56","39.4","38.4","96","30.03","137","0","0","0.00","0.00"
"07:19:57","39.3","38.3","96","30.03","137","0","0","0.00","0.00"
"07:24:58","39.3","38.3","96","30.03","137","0","0","0.00","0.00"
"07:29:59","39.2","38.2","96","30.03","137","0","0","0.00","0.00"
"07:34:56","39.2","38.2","96","30.03","137","0","0","0.00","0.00"
"07:39:59","39.2","38.2","96","30.03","137","0","0","0.00","0.00"
"07:44:56","39.3","38.3","96","30.03","137","0","0","0.00","0.00"
"07:49:58","39.4","38.4","96","30.02","137","0","0","0.00","0.00"
"07:54:58","39.5","38.5","96","30.02","137","0","0","0.00","0.00"
"07:59:56","39.6","38.6","96","30.03","137","0","0","0.00","0.00"
"08:04:56","39.7","38.7","96","30.03","137","0","0","0.00","0.00"
"08:09:56","39.8","38.8","96","30.03","137","0","0","0.00","0.00"
"08:12:15","39.9","38.9","96.1","30.03","137","0","0","0.00","0.00"
"08:34:58","42.5","42","98","30.04","137","0.2","1.2","0.00","0.00"
"08:39:56","43","42.5","98","30.04","137","0.3","1.2","0.00","0.00"
"08:44:58","44","43.5","98","30.04","137","0.1","1.2","0.00","0.00"
"08:49:56","44.9","44.4","98","30.04","137","0","0","0.00","0.00"
"08:54:57","45.6","45.1","98","30.04","137","0","0","0.00","0.00"
"08:59:59","46.3","45.8","98","30.04","137","0","0","0.00","0.00"
"09:04:57","47.4","46.9","98","30.03","138","0.1","2.4","0.00","0.00"
"09:09:56","48.3","47.8","98","30.03","130","1.5","4.8","0.00","0.00"
"09:14:59","49","47.7","95.4","30.03","141","0.8","3.5","0.00","0.00"
"09:19:57","49.7","48.1","94.2","30.03","141","0.5","2.4","0.00","0.00"
"09:24:58","50.5","48.5","92.5","30.03","141","0.9","3.6","0.00","0.00"
"09:29:59","51.2","48.7","90.8","30.03","141","1.4","3.6","0.00","0.00"
"09:34:58","51.7","48.7","89.2","30.03","144","2.1","4.8","0.00","0.00"
"09:39:57","52.2","48.6","87.6","30.03","161","2.1","4.8","0.00","0.00"
"09:44:59","52.7","48.6","86","30.03","159","2","4.8","0.00","0.00"
"09:49:56","53.3","49.2","85.9","30.02","174","2.1","6","0.00","0.00"
"09:54:57","53.8","49.4","85.2","30.02","187","1.8","5.8","0.00","0.00"
"09:59:58","54.3","49.3","83.2","30.02","165","3.6","6","0.00","0.00"
"10:04:56","54.9","49.5","81.9","30.02","162","3.7","7.2","0.00","0.00"
"10:09:59","55.6","50.1","81.6","30.02","170","2.6","7.2","0.00","0.00"
"10:14:58","56.3","50.2","80.1","30.02","186","3.7","7.2","0.00","0.00"
"10:19:59","56.9","50.1","77.8","30.01","174","4.1","8.4","0.00","0.00"
"10:24:57","57.6","50.8","78","30.01","211","3.3","6.9","0.00","0.00"
"10:29:58","58.5","50.5","74.9","30.01","172","3.2","7.2","0.00","0.00"
"10:34:56","59.2","50.4","72.6","30.01","182","5.1","13.2","0.00","0.00"
"10:39:59","59.6","50.5","71.5","30.01","171","3.4","7.2","0.00","0.00"
"10:44:56","60.1","50.6","70.9","30.01","189","4.3","12","0.00","0.00"
"10:49:57","60.5","50.5","69.6","30.00","181","4.5","8.4","0.00","0.00"
"10:54:58","60.9","50.9","69.5","30.00","185","4.4","8.4","0.00","0.00"
"10:59:59","61.4","50.6","67.8","30.00","183","5.8","12","0.00","0.00"
"11:04:57","61.7","50.8","67.5","30.00","177","4.7","12","0.00","0.00"
"11:09:56","62.2","50.4","65.2","30.00","196","5.2","12","0.00","0.00"
"11:14:59","62.8","50.7","64.7","30.00","179","5.3","10.8","0.00","0.00"
"11:19:56","63.4","50.4","62.5","29.99","170","5","13.2","0.00","0.00"
"11:24:58","64.1","50.6","61.6","29.99","171","5.7","12","0.00","0.00"
"11:29:59","64.5","50.8","61.1","29.99","191","5.9","15","0.00","0.00"
"11:34:56","64.8","51.1","61.1","29.98","183","4.6","10.8","0.00","0.00"
"11:39:59","65.2","50.6","59.2","29.98","192","5.7","13.2","0.00","0.00"
"11:44:57","65.7","51.2","59.5","29.98","184","5.5","13.2","0.00","0.00"
"11:49:58","66.4","50.5","56.7","29.98","189","6.8","13.2","0.00","0.00"
"11:54:59","66.8","50.5","55.9","29.98","195","7.2","14.4","0.00","0.00"
"11:59:56","67.1","50.6","55.5","29.98","186","7.4","16.1","0.00","0.00"
"12:04:58","67.5","50.8","55","29.97","188","6.1","13.2","0.00","0.00"
"12:09:57","67.8","50.7","54.4","29.97","170","6.6","13.2","0.00","0.00"
"12:14:56","68","50.4","53.4","29.97","187","5.2","17.3","0.00","0.00"
"12:19:58","68.5","51.6","54.8","29.96","190","6.5","15","0.00","0.00"
"12:24:59","69.1","51.7","54","29.96","201","4.7","13.2","0.00","0.00"
"12:29:56","69.6","52.2","54","29.96","195","5.6","16.1","0.00","0.00"
"12:34:57","70.1","51","50.9","29.96","204","8.8","19.6","0.00","0.00"
"12:39:57","70.1","50.4","49.7","29.96","196","8.9","18.4","0.00","0.00"
"12:44:58","70.3","50.9","50.2","29.96","189","7.4","18.4","0.00","0.00"
"12:49:56","70.7","51.2","50.2","29.96","196","6.2","13.2","0.00","0.00"
"12:54:57","71","50.9","49.1","29.96","176","6","17.3","0.00","0.00"
"12:59:58","71.3","51","48.8","29.96","191","6.4","17.3","0.00","0.00"
"13:04:56","71.6","50.9","48.1","29.96","193","7.8","15","0.00","0.00"
"13:09:59","71.9","51.4","48.5","29.96","189","6.1","13.2","0.00","0.00"
"13:14:58","72.3","50","45.3","29.96","187","8","15.6","0.00","0.00"
"13:19:59","72.3","50.9","47","29.95","197","7.7","18.4","0.00","0.00"
"13:24:56","72.5","50.4","45.8","29.95","193","8.8","17.3","0.00","0.00"
"13:29:58","72.6","51.3","47.2","29.95","187","6.6","20.4","0.00","0.00"
"13:34:59","72.8","50.7","45.9","29.94","194","8.7","20.7","0.00","0.00"
"13:39:58","72.9","51.2","46.4","29.94","185","7","17.3","0.00","0.00"
"13:44:56","73.1","50.9","45.6","29.94","199","7.7","18","0.00","0.00"
"13:49:57","73.2","51","45.6","29.93","174","7.5","15","0.00","0.00"
"13:54:59","73.5","52","46.9","29.93","194","5","8.4","0.00","0.00"
"13:59:56","74","51.8","45.9","29.93","192","5.8","16.1","0.00","0.00"
"14:04:57","74.3","51.8","45.3","29.93","179","7","18.4","0.00","0.00"
"14:09:56","74.4","51.6","44.8","29.93","184","6.5","15","0.00","0.00"
"14:14:59","74.6","51.8","44.9","29.93","181","6.2","14.4","0.00","0.00"
"14:19:57","74.8","51","43.3","29.92","190","7.7","15.6","0.00","0.00"
"14:24:58","74.8","51.3","43.9","29.92","182","7.3","16.1","0.00","0.00"
"14:29:56","74.8","51.4","43.9","29.92","173","6.7","15","0.00","0.00"
"14:34:57","74.7","50.8","43.2","29.91","176","8.9","20.7","0.00","0.00"
"14:39:56","74.6","50.6","43","29.91","185","6.9","15","0.00","0.00"
"14:44:58","74.9","51.2","43.6","29.91","198","6.4","15","0.00","0.00"
"14:49:59","75.1","50.7","42.3","29.91","182","9.7","23","0.00","0.00"
"14:54:57","75.1","50.4","42","29.91","201","9.3","18.4","0.00","0.00"
"14:59:58","75.1","50.8","42.6","29.91","183","8.3","16.1","0.00","0.00"
"15:04:56","75.2","51.3","43.2","29.91","195","6.9","19.6","0.00","0.00"
"15:09:59","75.5","51.6","43.3","29.91","196","7.4","20.7","0.00","0.00"
"15:14:58","75.5","51.3","42.8","29.91","197","7.4","19.6","0.00","0.00"
"15:19:56","75.6","51.7","43.4","29.91","190","6.8","12.7","0.00","0.00"
"15:24:57","75.8","52","43.5","29.91","181","5.8","13.2","0.00","0.00"
"15:29:59","75.8","52","43.5","29.91","186","6.5","14.4","0.00","0.00"
"15:34:56","75.9","52.1","43.5","29.91","197","6.7","19.2","0.00","0.00"
"15:39:56","75.9","52.5","44.1","29.91","197","5.9","18.4","0.00","0.00"
"15:44:57","76","52.6","44.1","29.91","200","5.8","12","0.00","0.00"
"15:49:59","76","52.2","43.6","29.91","188","5.5","13.2","0.00","0.00"
"15:54:56","76","52.2","43.4","29.91","185","6","12.7","0.00","0.00"
"15:59:58","76","52.4","43.8","29.91","186","7.2","15","0.00","0.00"
"16:04:56","76","52.2","43.6","29.91","177","5.5","12.7","0.00","0.00"
"16:09:59","76.1","52.7","44.2","29.91","196","4.8","12","0.00","0.00"
"16:14:58","76.4","53","44.2","29.91","205","5","13.2","0.00","0.00"
"16:19:56","76.5","52.9","43.8","29.91","182","4.3","15","0.00","0.00"
"16:24:57","76.4","52.6","43.6","29.91","201","5.9","13.2","0.00","0.00"
"16:29:58","76.3","52.7","43.9","29.92","193","5.9","13.2","0.00","0.00"
"16:34:59","76","52.1","43.5","29.92","200","6.8","17.3","0.00","0.00"
"16:39:59","75.7","52.4","44.4","29.92","184","5.3","12","0.00","0.00"
"16:44:56","75.7","52.4","44.3","29.92","184","4.8","12","0.00","0.00"
"16:49:57","75.6","52.1","44","29.92","180","7.1","15","0.00","0.00"
"16:54:58","75.5","52.6","44.9","29.92","189","5.2","11.5","0.00","0.00"
"16:59:56","75.5","52.4","44.6","29.92","165","3.5","7.2","0.00","0.00"
"17:04:57","75.6","52.5","44.7","29.92","193","4.2","10.8","0.00","0.00"
"17:09:56","75.6","52.5","44.5","29.92","194","4.7","10.8","0.00","0.00"
"17:14:56","75.5","52.2","44.2","29.92","169","4","16.1","0.00","0.00"
"17:19:57","75.3","51.7","43.7","29.92","183","3.9","8.1","0.00","0.00"
"17:24:59","75.3","52.6","45.1","29.92","186","2.6","6","0.00","0.00"
"17:29:56","75.4","52.1","44.3","29.92","178","3.2","13.2","0.00","0.00"
"17:34:58","75","52.1","44.8","29.92","174","3.1","9.6","0.00","0.00"
"17:39:57","74.4","52.1","45.7","29.92","175","2.6","9.2","0.00","0.00"
"17:44:59","73.8","52.2","46.8","29.92","173","2.9","6","0.00","0.00"
"17:49:56","73.3","52","47.3","29.92","180","2.7","8.4","0.00","0.00"
"17:54:58","72.9","52.1","48","29.92","181","2.8","6.9","0.00","0.00"
"17:59:56","72.5","52.1","48.6","29.92","179","2.6","6","0.00","0.00"
"18:04:57","72.1","52.1","49.4","29.92","163","2.7","6","0.00","0.00"
"18:09:56","71.7","52.1","50","29.92","167","2.8","4.8","0.00","0.00"
"18:14:56","71.3","52","50.5","29.92","184","2.9","4.8","0.00","0.00"
"18:19:58","70.8","51.8","51","29.92","188","2.2","4.8","0.00","0.00"
"18:24:56","70.5","51.8","51.6","29.92","184","1.6","4.8","0.00","0.00"
"18:29:58","70.2","51.7","52","29.92","182","1.9","4.8","0.00","0.00"
"18:34:56","69.8","51.5","52.1","29.92","182","1.9","4.8","0.00","0.00"
"18:39:56","69.5","51.4","52.7","29.92","184","1.4","4.6","0.00","0.00"
"18:44:59","69.2","51.3","53","29.93","185","1","3.6","0.00","0.00"
"18:49:57","68.9","51.5","53.9","29.93","184","2.3","6","0.00","0.00"
"18:54:59","68.5","51.2","54","29.93","184","1.3","4.6","0.00","0.00"
"18:59:57","68.2","51.2","54.5","29.93","184","0.4","2.4","0.00","0.00"
"19:04:59","67.9","51.3","55.4","29.93","184","0.1","1.2","0.00","0.00"
"19:09:59","67.5","51.6","56.8","29.93","184","0","0","0.00","0.00"
"19:14:56","66.9","52.1","59.1","29.94","184","0","0","0.00","0.00"
"19:19:58","65.9","52","60.7","29.94","184","0","0","0.00","0.00"
"19:24:56","65.1","51.7","62","29.94","184","0","0","0.00","0.00"
"19:29:58","64.3","51.9","64.1","29.94","184","0.1","1.2","0.00","0.00"
"19:34:56","63.7","51.8","65.3","29.94","184","0","0","0.00","0.00"
"19:39:57","63.1","52.5","68.5","29.94","184","0","0","0.00","0.00"
"19:44:59","62.4","52.5","70","29.95","184","0","0","0.00","0.00"
"19:49:57","61.8","52.2","70.9","29.95","184","0","0","0.00","0.00"
"19:54:55","61.1","52","71.9","29.95","184","0","0","0.00","0.00"
"19:59:58","60.6","51.8","72.8","29.95","184","0","1.2","0.00","0.00"
"20:04:56","60.1","51.8","74","29.95","184","0.3","1.2","0.00","0.00"
"20:09:59","59.6","51.3","74","29.95","184","0","0","0.00","0.00"
"20:14:59","59.3","51.5","75.2","29.95","184","0","1.2","0.00","0.00"
"20:19:57","58.9","51.9","77.3","29.95","184","0","1.2","0.00","0.00"
"20:24:56","58.6","51.9","78.2","29.95","184","0","0","0.00","0.00"
"20:29:58","58.2","51.7","79","29.95","184","1.1","3.6","0.00","0.00"
"20:34:57","57.8","51.7","79.8","29.95","184","0.7","3.5","0.00","0.00"
"20:39:56","57.5","51.5","80.1","29.95","184","0","0","0.00","0.00"
"20:44:59","57.3","51.5","81","29.95","184","0","0","0.00","0.00"
"20:49:57","57","51.2","81.1","29.95","184","0","1.2","0.00","0.00"
"20:54:59","56.7","51.3","82.2","29.95","184","0.4","2.4","0.00","0.00"
"20:59:58","56.4","51.3","83","29.96","184","0.6","2.4","0.00","0.00"
"21:04:56","56.2","51.2","83.3","29.96","184","0","0","0.00","0.00"
"21:09:56","56","51.2","84","29.96","184","0","1.2","0.00","0.00"
"21:14:56","55.8","51","84","29.96","184","0","0","0.00","0.00"
"21:19:58","55.7","50.9","84","29.95","184","0","0","0.00","0.00"
"21:24:56","55.6","50.8","84","29.95","184","0","1.2","0.00","0.00"
"21:29:59","55.5","50.7","84","29.96","184","0.3","2.4","0.00","0.00"
"21:34:57","55.2","50.8","85.1","29.96","184","1.1","3.6","0.00","0.00"
"21:39:57","54.9","50.8","86","29.96","184","1.9","3.5","0.00","0.00"
"21:44:56","54.8","50.7","86","29.97","184","0.7","2.4","0.00","0.00"
"21:49:58","54.7","50.7","86.5","29.97","184","0.8","3.6","0.00","0.00"
"21:54:56","54.5","50.7","87","29.97","241","2.6","6","0.00","0.00"
"21:59:58","54.4","50.6","87","29.97","336","1.4","3.6","0.00","0.00"
"22:04:56","54.3","50.5","87","29.97","336","0.1","2.3","0.00","0.00"
"22:09:59","54.2","50.4","87","29.97","336","0.1","1.2","0.00","0.00"
"22:14:56","54","50.2","87","29.97","336","0","0","0.00","0.00"
"22:19:58","53.8","50.1","87.2","29.97","336","0","0","0.00","0.00"
"22:24:56","53.7","50.2","88","29.97","336","0","0","0.00","0.00"
"22:29:59","53.5","50","88","29.98","336","0","0","0.00","0.00"
"22:34:57","53.3","49.8","88","29.98","336","0","0","0.00","0.00"
"22:39:58","53.1","49.8","88.8","29.98","336","0","0","0.00","0.00"
"22:44:56","52.9","49.7","89","29.98","336","0","1.2","0.00","0.00"
"22:49:58","52.7","49.4","88.8","29.97","269","1","4.8","0.00","0.00"
"22:54:56","52.3","49.4","89.5","29.97","265","0.1","2.3","0.00","0.00"
"22:59:58","52.4","49.6","90","29.98","265","0.2","1.2","0.00","0.00"
"23:04:56","52.5","49.7","89.9","29.98","265","1.4","3.6","0.00","0.00"
"23:09:59","52.4","49.5","89.9","29.98","265","0.4","3.5","0.00","0.00"
"23:14:59","52.3","49.5","90","29.98","265","0.4","2.4","0.00","0.00"
"23:19:57","52.2","49.4","90","29.98","265","0","0","0.00","0.00"
"23:24:59","52.1","49.3","90","29.98","265","0.1","2.4","0.00","0.00"
"23:29:58","51.9","49.1","90","29.98","265","0.4","2.3","0.00","0.00"
"23:34:56","51.8","49","90.1","29.98","265","0.3","2.4","0.00","0.00"
"23:39:57","51.7","48.9","90.2","29.98","265","0.1","2.3","0.00","0.00"
"23:44:59","51.5","48.7","90.2","29.98","265","0","0","0.00","0.00"
"23:49:57","51.2","48.7","90.9","29.98","265","0","0","0.00","0.00"
"23:54:59","51","48.5","91","29.98","265","0","0","0.00","0.00"
